Kenai, AK

11:38 PM AKDT on September 23, 2017 (GMT -0800)
Kenai Municipal

Weather History for PAEN - March, 2013

Change the Weather History Date:

Thursday, March 14, 2013

  Actual Average Record
Temperature  
Mean Temperature 18 °F -  
Max Temperature 21 °F 32 °F 48 °F (1983)
Min Temperature 14 °F 11 °F -27 °F (1961)
Degree Days  
Heating Degree Days 48    
Moisture  
Dew Point 12 °F    
Average Humidity 81    
Maximum Humidity 93    
Minimum Humidity 50    
Precipitation  
Precipitation 0.00 in - - ()
Sea Level Pressure  
Sea Level Pressure 29.82 in    
Wind  
Wind Speed 18 mph (NNE)    
Max Wind Speed 25 mph    
Max Gust Speed 31 mph    
Visibility 4 miles    
Events Fog , Snow    
Averages and records for this station are not official NWS values.
T = Trace of Precipitation, MM = Missing Value Source: NWS Daily Summary

Daily Weather History Graph

Daily Weather History Graph

Search for Another Location

Airport or City:

Trip Planner

Search our weather history database for the weather conditions in past years. The results will help you decide how hot, cold, wet, or windy it might be!

Date:

Astronomy

Mar. 14, 2013 Rise Set
Actual Time 8:23 AM AKDT 8:05 PM AKDT
Civil Twilight 7:41 AM AKDT 8:48 PM AKDT
Nautical Twilight 6:51 AM AKDT 9:38 PM AKDT
Astronomical Twilight 5:58 AM AKDT 10:31 PM AKDT
Moon 8:46 AM AKDT (3/14) No Moon Set
Length of Visible Light 13h 06m
Length of Day
11h 42m
Waxing Crescent, 10% of the Moon is Illuminated
Mar 14
Waxing Crescent
Mar 19
First Quarter
Mar 27
Full
Apr 2
Last Quarter
Apr 10
New

Hourly Weather History & Observations

Time (AKDT) Temp. Windchill Dew Point Humidity Pressure Visibility Wind Dir Wind Speed Gust Speed Precip Events Conditions
12:53 AM 19.9 °F 3.5 °F 3.9 °F 50% 29.80 in 10.0 mi NNE 21.9 mph 27.6 mph N/A   Overcast
1:53 AM 19.0 °F 3.2 °F 5.0 °F 54% 29.79 in 10.0 mi North 19.6 mph - N/A   Overcast
2:51 AM 17.6 °F -0.6 °F 8.6 °F 68% 29.78 in 2.0 mi NNE 25.3 mph 31.1 mph 0.00 in Snow Light Snow
2:53 AM 17.1 °F -1.0 °F 9.0 °F 71% 29.79 in 2.0 mi NNE 24.2 mph 31.1 mph 0.00 in Snow Light Snow
3:05 AM 17.6 °F 2.2 °F 8.6 °F 68% 29.78 in 7.0 mi NNE 17.3 mph - 0.00 in Snow Light Snow
3:44 AM 17.6 °F 0.9 °F 10.4 °F 73% 29.78 in 2.5 mi NNE 20.7 mph 27.6 mph 0.00 in Snow Light Snow
3:53 AM 17.1 °F 1.5 °F 10.9 °F 77% 29.78 in 3.0 mi NNE 17.3 mph - 0.00 in Snow Light Snow
4:42 AM 15.8 °F -1.5 °F 10.4 °F 79% 29.77 in 1.8 mi NNE 20.7 mph - 0.00 in Snow Light Snow
4:53 AM 15.1 °F -2.5 °F 10.9 °F 84% 29.78 in 1.5 mi NNE 20.7 mph - 0.00 in Snow Light Snow
5:00 AM 15.8 °F -1.5 °F 10.4 °F 79% 29.77 in 2.0 mi NNE 20.7 mph - 0.00 in Snow Light Snow
5:10 AM 15.8 °F -1.1 °F 10.4 °F 79% 29.77 in 1.2 mi NNE 19.6 mph 28.8 mph 0.00 in Snow Light Snow
5:32 AM 15.8 °F -1.5 °F 12.2 °F 86% 29.77 in 2.0 mi NNE 20.7 mph - 0.00 in Snow Light Snow
5:49 AM 15.8 °F -0.6 °F 12.2 °F 86% 29.77 in 3.0 mi NNE 18.4 mph - 0.00 in Snow Light Snow
5:53 AM 16.0 °F 0.6 °F 12.0 °F 84% 29.78 in 2.5 mi NNE 16.1 mph 25.3 mph 0.00 in Snow Light Snow
6:05 AM 15.8 °F 0.3 °F 12.2 °F 86% 29.77 in 1.0 mi North 16.1 mph 23.0 mph 0.00 in Snow Light Snow
6:51 AM 15.8 °F 0.9 °F 12.2 °F 86% 29.77 in 2.5 mi North 15.0 mph - 0.00 in Snow Light Snow
6:53 AM 16.0 °F 2.3 °F 12.0 °F 84% 29.78 in 2.5 mi North 12.7 mph - 0.00 in Snow Light Snow
7:14 AM 15.8 °F 0.9 °F 10.4 °F 79% 29.77 in 1.8 mi North 15.0 mph 21.9 mph 0.00 in Snow Light Snow
7:32 AM 15.8 °F 0.3 °F 10.4 °F 79% 29.77 in 0.8 mi North 16.1 mph 24.2 mph 0.00 in Snow Light Snow
7:51 AM 15.8 °F 1.4 °F 12.2 °F 86% 29.77 in 1.0 mi North 13.8 mph 24.2 mph 0.00 in Snow Light Snow
7:53 AM 15.1 °F -0.6 °F 12.0 °F 88% 29.78 in 1.0 mi North 16.1 mph 23.0 mph 0.00 in Snow Light Snow
8:45 AM 14.0 °F 0.5 °F 12.2 °F 93% 29.79 in 0.2 mi North 11.5 mph - 0.00 in Fog , Snow Heavy Snow
8:53 AM 14.0 °F -0.8 °F 12.0 °F 92% 29.80 in 0.2 mi North 13.8 mph - 0.00 in Fog , Snow Heavy Snow
9:10 AM 14.0 °F -1.4 °F 10.4 °F 86% 29.80 in 0.5 mi North 15.0 mph - 0.00 in Fog , Snow Snow
9:45 AM 15.8 °F 1.4 °F 12.2 °F 86% 29.81 in 0.5 mi North 13.8 mph - 0.00 in Fog , Snow Snow
9:53 AM 15.1 °F 1.8 °F 12.0 °F 88% 29.82 in 0.5 mi North 11.5 mph - 0.00 in Fog , Snow Snow
10:11 AM 15.8 °F 2.1 °F 12.2 °F 86% 29.81 in 0.8 mi North 12.7 mph - 0.00 in Snow Light Snow
10:18 AM 15.8 °F 1.4 °F 12.2 °F 86% 29.81 in 0.5 mi NNE 13.8 mph - 0.00 in Fog , Snow Snow
10:32 AM 15.8 °F 1.4 °F 12.2 °F 86% 29.82 in 0.8 mi NNE 13.8 mph - 0.00 in Snow Light Snow
10:43 AM 15.8 °F 2.1 °F 12.2 °F 86% 29.82 in 1.5 mi North 12.7 mph - 0.00 in Snow Light Snow
10:53 AM 16.0 °F 2.3 °F 12.0 °F 84% 29.84 in 1.5 mi NNE 12.7 mph 19.6 mph 0.00 in Snow Light Snow
11:24 AM 15.8 °F 0.3 °F 12.2 °F 86% 29.83 in 0.8 mi NNE 16.1 mph - 0.00 in Snow Light Snow
11:41 AM 15.8 °F 0.9 °F 12.2 °F 86% 29.84 in 1.2 mi NNE 15.0 mph - 0.00 in Snow Light Snow
11:53 AM 16.0 °F 0.1 °F 12.0 °F 84% 29.85 in 1.8 mi NNE 17.3 mph - 0.00 in Snow Light Snow
12:21 PM 15.8 °F 1.4 °F 12.2 °F 86% 29.85 in 3.0 mi NNE 13.8 mph - 0.00 in Snow Light Snow
12:31 PM 15.8 °F 0.3 °F 12.2 °F 86% 29.85 in 2.5 mi NNE 16.1 mph - 0.00 in Snow Light Snow
12:53 PM 17.1 °F 1.5 °F 12.0 °F 81% 29.87 in 1.0 mi NNE 17.3 mph - 0.00 in Snow Light Snow
1:28 PM 17.6 °F 2.7 °F 12.2 °F 79% 29.87 in 2.0 mi NNE 16.1 mph - 0.00 in Snow Light Snow
1:53 PM 18.0 °F 4.8 °F 12.9 °F 81% 29.88 in 3.0 mi North 12.7 mph - 0.00 in Snow Light Snow
2:53 PM 19.0 °F 5.6 °F 12.9 °F 77% 29.88 in 3.0 mi North 13.8 mph - 0.00 in Snow Light Snow
3:53 PM 19.0 °F 3.6 °F 12.9 °F 77% 29.89 in 10.0 mi North 18.4 mph - 0.00 in   Mostly Cloudy
4:53 PM 19.9 °F 6.2 °F 12.9 °F 74% 29.89 in 10.0 mi NNE 15.0 mph - 0.00 in   Mostly Cloudy
5:53 PM 19.9 °F 4.8 °F 15.1 °F 81% 29.88 in 10.0 mi North 18.4 mph 23.0 mph N/A   Mostly Cloudy
6:23 PM 19.4 °F 4.1 °F 15.8 °F 86% 29.87 in 10.0 mi NNE 18.4 mph - N/A   Scattered Clouds
6:53 PM 21.0 °F 7.6 °F 15.1 °F 78% 29.88 in 10.0 mi NNE 15.0 mph - N/A   Mostly Cloudy
7:53 PM 21.0 °F 8.1 °F 16.0 °F 81% 29.87 in 10.0 mi NNE 13.8 mph - N/A   Overcast
8:53 PM 21.0 °F 8.1 °F 15.1 °F 78% 29.87 in 10.0 mi NNE 13.8 mph - N/A   Mostly Cloudy
9:53 PM 19.9 °F 6.7 °F 16.0 °F 85% 29.86 in 10.0 mi NNE 13.8 mph - N/A   Clear
10:53 PM 19.9 °F 6.7 °F 16.0 °F 85% 29.86 in 10.0 mi NNE 13.8 mph - N/A   Clear
11:53 PM 19.9 °F 6.2 °F 16.0 °F 85% 29.85 in 10.0 mi NNE 15.0 mph - N/A   Clear